Location: Montr�al
(45.5000°N, 73.5830°W)
Time: 05:26:57
(UTC-04:00)

ISS - Visible Passes

Search period start: 31 July 2014 00:00
Search period end: 10 August 2014 00:00
Orbit: 411 x 419 km, 51.6° (Epoch: 31 July)

Date Brightness Start Highest point End Pass type
(mag) Time Alt. Az. Time Alt. Az. Time Alt. Az.
31 Jul -0.2 00:37:03 11° NE 00:37:03 11° NE 00:37:10 10° NE visible
31 Jul -1.2 02:09:55 22° NW 02:11:03 27° N 02:14:01 10° ENE visible
31 Jul -1.9 03:45:07 10° NW 03:48:20 40° NNE 03:51:32 10° E visible
01 Aug -1.1 01:22:53 26° NNE 01:22:53 26° NNE 01:25:04 10° NE visible
01 Aug -1.5 02:56:17 10° NW 02:59:22 33° NNE 03:02:28 10° E visible
01 Aug -3.4 04:32:57 10° WNW 04:36:19 75° SSW 04:39:40 10° SE visible
02 Aug -0.2 00:36:08 10° NE 00:36:08 10° NE 00:36:10 10° NE visible
02 Aug -1.2 02:09:02 22° NNW 02:10:23 29° N 02:13:22 10° ENE visible
02 Aug -3.1 03:44:06 10° WNW 03:47:28 72° NNE 03:50:50 10° ESE visible
02 Aug -3.0 22:04:12 10° SW 22:07:22 42° SE 22:07:59 37° ESE visible
02 Aug -0.4 23:40:54 10° W 23:41:08 12° W 23:41:08 12° W visible
03 Aug -0.5 01:23:17 17° NE 01:23:17 17° NE 01:24:18 10° ENE visible
03 Aug -2.4 02:56:18 18° NW 02:58:34 50° NNE 03:01:51 10° E visible
03 Aug -2.5 04:32:10 10° WNW 04:35:11 31° SW 04:38:11 10° SSE visible
03 Aug -2.2 21:15:49 10° SSW 21:18:38 26° SE 21:21:27 10° E visible
03 Aug -2.7 22:51:52 10° WSW 22:55:10 57° NNW 22:57:00 23° NE visible
04 Aug -0.4 00:29:23 10° WNW 00:29:59 14° WNW 00:29:59 14° WNW visible
04 Aug -3.2 03:46:03 47° WSW 03:46:25 50° SW 03:49:41 10° SE visible
04 Aug -3.3 22:02:56 10° WSW 22:06:15 84° NNW 22:09:37 10° ENE visible
04 Aug -1.3 23:40:18 10° WNW 23:43:18 30° N 23:43:47 28° N visible
05 Aug -3.3 21:14:07 10° SW 21:17:24 62° SSE 21:20:43 10° ENE visible
05 Aug -1.6 22:51:11 10° W 22:54:17 35° NNW 22:56:54 13° NE visible
06 Aug -0.5 00:28:37 10° NW 00:29:46 18° NW 00:29:46 18° NW visible
06 Aug -2.1 22:02:04 10° W 22:05:17 44° NNW 22:08:31 10° NE visible
06 Aug -1.2 23:39:36 10° WNW 23:42:32 27° N 23:42:38 27° N visible
07 Aug -2.7 21:13:02 10° WSW 21:16:20 61° NNW 21:19:39 10° ENE visible
07 Aug -1.2 22:50:31 10° WNW 22:53:28 28° N 22:55:24 17° NE visible
08 Aug -0.3 00:27:37 10° NW 00:28:15 14° NW 00:28:15 14° NW visible
08 Aug -1.4 22:01:24 10° WNW 22:04:25 31° N 22:07:26 10° NE visible
08 Aug -1.1 23:38:41 10° NW 23:40:58 27° NNW 23:40:58 27° NNW visible
09 Aug -1.7 21:12:15 10° W 21:15:22 36° NNW 21:18:30 10° NE visible
09 Aug -1.4 22:49:42 10° WNW 22:52:39 28° N 22:53:39 24° NE visible
